Wind_Speed
14 14 14 13 13 12 11 10 11 11 11 11 11 11 10 11 11 10 10 10 11 11 11 12 12 11 12 12 12 13 14 16 16 14 17 16 12 15 14 9 14 19 19 16 17 18 18 16 16 16 13 10 9 9 10 10 8 6 6 8 8 9 9 5 6 5 3 3 5 3 3 6 3 6 3 6 9 8 10 7 10 10 10 12 16 22 25 23
14 14 14 14 14 13 12 11 11 11 11 11 11 11 10 11 11 11 11 11 11 11 11 12 11 12 12 12 12 12 14 16 17 18 20 20 14 13 14 10 12 20 21 17 18 20 17 15 16 15 11 8 8 10 10 9 9 8 7 9 8 10 7 3 3 0 1 2 4 3 4 4 1 7 4 6 9 11 13 10 11 10 12 14 17 21 22 22
14 14 14 14 14 14 12 11 11 11 10 11 11 11 11 11 11 11 11 11 11 11 12 12 12 13 13 12 11 10 13 17 16 15 13 14 15 14 12 11 14 20 23 18 17 19 17 15 16 14 11 9 8 10 10 9 9 9 9 8 9 12 8 0 3 3 2 2 0 2 2 2 2 5 6 7 6 7 9 10 10 9 12 14 16 18 21 20
14 14 14 14 14 14 13 12 12 11 11 11 11 11 11 11 10 10 11 11 11 12 11 12 12 13 12 12 10 9 12 15 8 2 5 5 11 14 13 14 16 20 22 16 14 18 17 15 15 14 12 10 9 11 10 9 8 8 10 10 10 10 7 2 3 5 1 2 3 1 2 5 3 3 6 10 9 4 5 11 13 11 13 15 16 16 18 17
14 14 14 14 14 14 14 13 12 11 11 11 11 11 11 11 10 10 11 11 11 12 12 12 12 13 12 11 9 9 11 7 3 10 7 2 6 13 14 16 18 20 19 13 13 17 16 15 14 13 11 10 10 10 11 12 10 8 12 14 14 7 5 4 4 3 2 3 5 4 6 3 3 5 6 8 12 7 8 11 12 12 13 15 16 15 15 16
13 13 13 14 13 14 14 14 13 11 11 10 11 11 11 11 10 11 11 11 11 12 12 12 12 13 11 10 10 9 9 3 5 7 4 1 6 12 13 16 19 19 16 12 13 15 14 14 13 12 11 10 13 12 11 13 11 10 11 13 16 10 6 4 3 3 3 6 8 7 4 2 4 7 5 6 6 5 7 7 10 12 11 13 15 15 15 16
14 13 13 13 13 13 13 14 13 12 11 10 11 11 11 11 10 11 11 10 11 11 12 12 12 12 10 12 11 9 11 7 2 6 3 3 8 12 12 16 19 18 15 13 13 13 12 14 14 12 11 11 13 13 12 14 14 13 11 12 14 11 9 7 3 4 5 8 8 6 4 3 9 6 5 7 4 5 5 6 9 12 10 10 14 15 15 15
14 13 13 13 13 13 13 13 13 13 12 10 10 10 10 11 10 11 11 11 11 11 11 11 12 10 10 11 10 8 10 4 6 6 1 5 10 12 13 16 20 18 15 14 13 12 12 14 14 12 11 11 12 12 13 14 15 14 14 12 10 9 11 10 7 7 7 8 7 7 8 8 10 4 5 7 7 7 4 6 11 13 10 11 12 14 14 14
14 14 14 13 13 13 13 13 13 13 13 11 10 10 10 10 11 11 11 11 11 11 11 11 11 8 8 9 10 8 3 5 8 4 3 9 12 14 16 16 19 18 14 14 13 12 11 11 13 13 12 11 12 12 13 14 11 12 16 14 9 8 11 10 11 11 9 8 7 10 11 11 10 3 7 10 8 7 5 6 11 13 11 10 11 12 13 14
14 14 13 13 13 13 14 14 13 13 13 12 11 10 10 10 11 11 11 11 10 11 10 11 9 6 9 10 11 7 3 6 6 6 7 12 15 16 17 15 18 17 14 13 13 12 11 9 11 12 11 11 11 12 13 13 8 7 12 16 13 10 10 10 12 13 10 10 10 11 12 13 10 4 9 11 9 8 7 8 10 12 8 8 11 12 12 13
14 14 14 14 13 14 14 14 14 13 13 13 11 11 10 10 11 10 11 10 10 11 10 10 6 5 11 10 10 6 5 4 3 7 10 15 16 16 15 13 14 15 13 11 11 12 12 10 8 8 7 9 10 11 12 13 10 7 8 13 16 13 11 11 12 12 10 10 11 11 13 15 11 9 14 10 11 9 9 9 11 13 11 11 11 12 11 11
14 14 14 14 14 14 14 14 14 13 13 13 12 11 10 11 10 11 11 10 10 10 9 8 3 5 12 9 11 7 2 2 3 5 11 15 15 15 12 10 12 13 12 10 10 11 13 11 9 9 6 5 9 9 10 13 13 11 7 10 13 13 13 14 13 12 11 9 11 12 12 15 11 12 16 8 10 11 10 10 11 12 12 12 11 11 10 10
14 14 14 14 14 14 14 14 14 14 14 13 13 11 10 11 10 10 10 9 9 8 9 7 3 8 10 8 9 6 2 4 5 5 10 13 14 13 10 10 11 11 10 10 9 11 13 9 9 13 7 6 9 2 2 10 12 11 10 9 10 12 13 16 15 14 14 11 12 12 9 13 14 17 17 10 10 11 11 11 10 10 10 10 10 10 10 11
14 14 15 15 15 14 15 14 14 14 14 14 13 12 11 11 11 10 10 9 8 8 8 4 4 8 8 9 10 6 6 5 7 8 10 13 13 12 10 10 10 10 9 9 8 8 11 9 10 12 8 9 8 2 2 9 9 10 11 9 9 9 10 16 17 16 16 10 11 12 8 10 14 19 20 14 14 12 12 12 11 10 9 9 10 9 10 11
15 15 15 15 15 15 15 15 15 14 15 14 14 14 12 11 11 10 9 9 9 8 6 3 6 7 7 12 10 7 8 8 11 13 12 13 13 11 11 11 11 10 8 8 7 6 9 10 10 9 8 11 9 3 8 8 8 10 10 9 10 9 10 14 18 16 15 11 13 13 8 9 14 19 22 16 15 15 13 13 11 11 10 10 9 9 10 10
16 15 15 15 15 15 15 15 15 15 15 15 15 15 12 11 10 10 8 7 8 5 4 7 8 9 8 6 3 5 9 11 14 16 14 14 13 10 11 12 11 10 9 8 7 8 9 9 9 9 8 10 9 7 8 8 8 10 9 10 10 11 12 11 15 15 16 13 15 15 10 9 12 9 17 16 14 16 14 12 12 11 11 10 9 9 10 10
16 16 15 15 15 15 16 15 16 15 15 16 15 14 11 10 7 5 4 4 6 5 7 9 5 7 8 5 3 7 10 9 12 16 15 14 12 8 9 11 10 11 10 9 9 9 10 9 8 7 7 7 9 9 8 8 8 8 9 10 10 13 13 10 13 14 17 15 14 15 13 12 4 6 11 12 13 15 13 13 12 11 10 10 9 9 10 10
16 16 16 15 15 16 16 16 16 15 16 16 14 13 11 7 3 3 3 3 5 7 9 8 5 5 7 9 7 4 8 9 10 14 14 13 11 8 10 10 10 11 11 9 10 10 10 8 7 7 7 8 9 9 9 9 9 9 10 9 11 12 12 12 11 12 17 15 13 14 14 15 8 9 11 12 12 13 13 12 11 11 11 10 9 10 10 11
17 17 16 16 16 16 16 16 16 16 17 16 12 12 9 4 3 6 8 7 6 6 6 5 9 5 3 7 7 2 6 8 9 12 13 13 11 10 12 11 10 12 11 8 10 11 8 7 8 8 8 9 10 11 11 10 9 9 11 11 11 10 10 13 9 10 14 13 13 14 12 15 15 11 12 11 11 11 13 12 11 11 11 10 10 10 10 11
17 17 17 17 16 16 16 16 16 16 17 15 11 9 6 4 4 4 8 10 11 12 12 7 11 11 7 6 8 6 7 7 10 12 14 13 11 12 12 10 11 12 11 9 10 10 8 7 8 8 9 10 11 14 11 7 8 7 8 10 13 11 9 13 9 10 9 10 12 14 13 13 15 13 12 12 11 12 14 13 12 11 11 11 11 11 11 11
17 17 17 17 17 17 16 16 16 17 17 13 9 7 6 7 6 3 2 9 14 17 18 14 12 14 12 7 6 8 8 9 12 12 14 14 12 12 11 11 12 10 11 11 9 7 8 8 9 11 12 9 10 14 8 6 7 8 8 6 10 10 8 13 11 10 8 8 8 12 14 12 14 15 12 11 11 12 14 13 13 13 13 11 12 12 11 10
17 17 17 18 18 17 17 17 15 17 16 9 8 10 8 8 7 7 7 10 14 16 17 16 15 14 12 10 7 7 8 11 13 12 14 15 14 12 10 12 12 10 12 11 8 7 8 8 11 11 8 3 3 6 5 6 8 9 8 7 7 8 9 10 8 6 7 7 8 12 12 12 15 13 10 11 11 10 13 14 13 14 14 12 11 11 11 11
17 17 18 18 19 19 17 16 15 16 14 9 11 12 10 8 7 8 9 9 13 15 15 14 15 14 12 12 10 10 11 11 12 13 17 15 13 11 10 12 12 11 12 11 8 7 7 9 13 11 6 4 5 4 6 7 8 9 9 8 8 9 10 8 7 8 9 7 9 11 9 10 10 7 8 9 10 9 12 14 13 13 13 11 11 10 11 12
18 18 18 18 20 19 16 17 17 14 12 12 14 15 12 10 8 10 9 8 11 13 12 9 10 12 11 11 12 14 13 10 10 13 18 16 13 10 10 12 13 12 11 12 12 10 8 6 9 8 7 8 10 8 9 8 8 10 11 11 9 9 11 6 5 9 9 8 11 9 7 9 8 9 9 8 8 9 11 14 13 13 12 10 11 10 10 11
18 18 18 19 20 19 17 16 11 6 7 11 14 14 11 8 7 9 8 7 8 7 8 7 6 8 9 9 11 13 12 11 11 11 18 17 13 10 9 9 10 11 12 14 12 12 9 5 5 5 6 10 11 9 11 10 8 10 12 15 13 11 12 7 5 7 7 8 11 11 9 7 10 12 11 10 10 10 10 13 13 12 11 9 9 9 10 10
18 18 19 19 20 20 15 9 3 3 8 10 9 5 4 5 6 8 6 6 6 4 7 8 6 6 9 9 11 12 12 11 12 11 17 18 16 10 8 7 7 10 11 11 9 8 6 6 6 8 8 11 11 10 12 11 9 8 10 16 16 13 10 8 8 9 7 4 7 12 10 5 9 12 13 13 13 14 13 11 12 11 9 10 9 8 9 7
19 18 19 18 18 17 11 7 7 9 10 4 1 2 3 5 6 6 5 6 6 4 7 6 4 6 8 10 14 12 8 9 12 12 15 17 15 11 10 8 8 8 6 6 7 7 7 5 6 9 10 11 10 9 11 13 11 6 5 13 16 12 8 8 9 9 7 3 4 11 11 6 6 10 14 16 14 16 14 11 11 10 9 9 8 9 8 6
19 19 19 18 17 13 10 11 12 11 9 4 4 4 5 6 6 5 5 5 3 3 4 4 5 5 7 9 17 13 3 8 13 12 15 17 15 10 10 10 9 9 7 6 6 6 9 10 8 10 10 8 9 10 11 13 12 5 3 10 13 13 11 10 11 9 6 5 5 9 11 8 4 7 12 15 14 16 15 14 13 11 11 9 7 10 6 9
20 19 18 19 19 12 9 12 11 12 11 7 7 7 7 6 5 5 5 4 2 3 3 4 5 8 8 9 16 15 5 7 9 10 16 17 15 11 9 9 10 10 11 11 8 4 6 10 11 12 11 8 10 11 10 14 11 3 5 10 10 11 12 9 10 8 6 7 8 8 11 9 5 7 9 10 12 13 12 12 11 10 11 9 8 9 6 10
21 20 19 19 17 9 6 12 15 14 12 9 9 8 8 6 4 6 6 3 3 3 4 4 6 9 12 12 13 15 12 8 5 10 15 14 14 13 7 5 8 10 10 12 13 6 1 3 6 10 11 6 4 4 5 12 11 3 5 10 8 8 9 7 8 7 6 8 9 10 12 10 6 7 8 10 11 9 8 9 10 11 10 8 8 5 10 8
23 23 21 17 12 7 6 8 7 6 6 6 8 7 7 6 5 7 6 2 4 5 6 6 8 10 13 14 11 13 14 10 8 11 12 11 13 12 7 5 6 7 7 9 12 10 5 6 6 9 11 5 2 4 5 10 10 5 7 9 8 7 7 7 7 7 7 7 9 11 11 10 7 4 4 6 8 6 6 8 11 12 12 11 10 7 12 10
25 23 20 16 13 12 11 7 2 4 4 6 7 6 6 6 7 8 6 3 3 5 7 7 9 10 13 14 11 14 14 10 12 13 12 11 11 10 10 9 6 7 8 7 9 9 8 10 10 11 11 7 7 8 8 9 9 8 8 8 7 7 6 7 7 7 7 6 7 9 9 9 6 4 5 3 8 6 3 7 9 8 7 6 6 7 10 11
24 20 16 12 11 14 16 12 8 8 7 7 7 6 6 7 8 8 9 7 2 3 3 5 8 9 12 11 11 14 14 10 13 14 13 13 11 11 13 13 11 9 7 7 9 8 7 9 13 13 10 9 11 8 7 8 9 10 9 8 8 6 6 8 7 7 8 6 5 6 6 7 4 6 9 5 5 7 6 7 7 6 5 3 5 8 7 9
20 15 11 6 7 11 11 9 8 7 6 6 6 6 9 9 8 8 11 11 5 3 3 5 7 9 10 10 10 13 12 11 14 14 14 14 11 10 13 15 16 12 7 7 8 8 9 8 12 13 8 11 13 12 7 7 9 10 10 8 7 6 6 7 6 5 6 5 6 7 6 6 5 4 8 10 9 10 10 10 9 8 8 7 9 11 10 10
14 7 5 5 7 9 10 8 7 6 5 7 7 8 10 9 7 9 9 10 9 6 7 7 8 10 10 10 10 13 13 10 13 14 12 13 11 10 11 12 15 13 9 8 6 7 10 7 10 16 12 11 15 14 10 8 9 9 9 10 8 6 7 4 2 1 2 3 4 7 5 3 3 4 6 7 9 10 11 12 12 11 12 13 13 14 12 11
8 2 4 8 6 5 8 8 7 7 7 7 8 9 10 8 8 9 6 7 10 9 9 9 9 10 9 8 9 12 13 11 12 13 10 12 13 12 12 11 13 14 10 7 5 5 9 6 8 15 13 11 13 14 12 10 6 4 7 10 6 5 7 5 3 3 2 5 5 5 6 4 6 7 7 7 7 8 9 9 9 9 11 12 11 11 11 10
6 4 5 6 3 1 5 7 8 9 7 8 9 9 9 9 11 11 6 3 7 8 9 9 8 9 9 8 9 12 14 11 12 11 9 11 12 13 15 12 13 16 13 9 5 4 6 5 5 12 13 12 11 10 12 12 8 3 6 8 5 4 5 6 4 4 5 7 6 5 7 7 6 6 9 11 8 7 7 9 9 8 9 10 9 10 11 11
8 6 5 2 2 4 5 8 10 9 6 8 10 10 10 10 12 13 7 3 7 8 10 9 6 7 9 9 9 10 11 9 9 9 9 9 6 7 14 13 13 16 16 11 6 4 5 6 6 10 12 13 10 9 10 11 12 9 6 5 6 5 6 5 5 4 6 7 6 7 8 7 6 5 10 13 11 10 9 9 9 8 9 9 10 11 12 13
9 7 3 2 4 3 5 9 10 8 7 9 10 9 10 11 12 12 7 5 8 9 9 10 8 7 7 9 9 7 9 10 9 7 8 8 4 4 9 9 11 13 14 13 9 5 5 5 5 8 10 10 10 9 9 8 11 12 8 6 7 5 5 5 5 5 6 6 6 7 8 5 2 1 7 9 10 12 10 9 8 8 9 9 9 11 11 12
8 5 1 4 4 2 6 9 9 7 7 9 9 8 10 12 12 11 9 7 8 7 8 10 10 7 6 10 10 6 6 9 6 3 4 5 4 4 6 6 8 10 10 10 9 6 6 5 5 5 7 8 7 8 11 10 9 11 9 8 8 6 5 5 5 5 6 6 6 7 7 3 4 2 3 8 12 11 10 10 9 9 9 9 10 10 10 10
6 3 2 4 3 3 5 6 7 7 8 8 9 11 10 8 8 11 11 9 8 8 9 10 9 8 8 9 9 7 6 7 5 4 4 5 3 2 3 5 7 9 8 9 9 6 5 6 7 6 6 8 7 7 11 12 9 8 9 10 9 8 6 6 7 6 6 6 5 6 5 3 5 4 3 12 11 10 12 12 11 11 11 10 10 10 11 11
6 2 3 4 1 3 4 5 6 6 7 7 9 10 7 2 4 10 10 9 9 9 8 8 8 9 8 7 7 8 7 7 7 7 6 5 5 4 2 6 6 8 7 7 5 1 0 3 6 8 7 7 6 4 6 8 9 9 9 9 10 9 7 8 7 5 6 7 6 7 5 3 3 4 4 9 10 11 12 11 11 12 11 10 10 10 11 11
2 2 4 3 1 5 5 5 6 6 7 8 8 8 6 4 6 11 11 8 9 9 8 7 8 9 10 8 8 8 6 6 9 7 5 5 1 2 5 6 6 7 7 5 4 5 2 3 6 8 6 7 8 6 6 7 9 10 9 8 9 8 7 9 6 1 3 6 6 7 6 2 3 2 3 6 8 10 11 10 11 11 9 9 10 10 11 10
3 2 2 4 0 5 5 5 5 5 7 9 7 7 9 7 7 10 11 9 8 8 7 8 8 9 9 8 7 8 7 5 8 7 5 7 6 7 11 8 7 7 5 3 4 4 3 3 4 6 5 5 8 8 7 7 8 9 9 10 10 10 10 10 5 2 4 6 6 6 4 3 3 1 3 6 8 9 10 10 10 9 8 9 9 10 10 10
3 2 0 4 2 3 3 4 5 5 5 7 7 8 9 7 6 7 8 8 7 6 5 6 7 6 7 8 7 10 10 6 5 7 5 4 6 6 8 9 8 8 1 5 5 5 4 3 3 6 6 4 5 4 4 5 6 8 10 10 9 12 14 10 6 6 7 7 8 7 2 4 5 5 6 6 7 8 9 10 10 10 10 10 10 10 10 9
3 2 2 2 2 2 2 3 5 5 5 5 5 6 7 7 5 5 7 5 4 5 6 6 6 5 7 10 9 9 11 9 7 6 6 5 4 5 4 5 5 4 6 8 6 5 3 4 5 6 6 3 2 4 10 12 9 9 13 11 8 10 11 9 7 8 7 6 8 7 5 10 8 7 8 7 7 8 9 10 9 10 11 10 10 10 10 9
3 2 4 3 2 2 2 4 5 5 4 4 3 3 5 7 4 3 6 5 3 5 6 5 6 7 8 9 9 9 11 11 10 8 8 7 2 5 3 4 5 6 8 7 7 5 3 5 6 7 6 3 2 3 7 14 13 8 7 6 6 6 7 7 7 6 6 4 5 3 6 13 11 10 10 7 6 7 9 10 10 9 11 10 9 10 10 10
3 2 4 3 3 4 4 5 6 6 6 4 2 2 4 5 3 2 4 4 4 4 5 4 6 8 9 8 7 8 9 10 9 6 6 6 2 4 5 6 8 7 7 8 8 5 5 6 8 8 7 5 3 3 3 6 11 9 5 4 2 1 3 3 1 2 2 2 2 4 7 10 9 10 10 8 6 7 7 8 8 8 8 10 11 11 11 11
2 2 3 1 2 5 5 5 5 6 8 8 4 4 4 1 2 2 1 2 2 2 4 4 4 6 7 8 8 6 4 5 5 1 2 5 4 3 4 5 7 8 8 6 6 5 4 3 8 9 7 6 4 3 5 3 6 7 6 8 8 6 7 7 7 7 5 7 10 12 12 10 8 8 9 8 6 6 7 7 7 5 5 8 11 11 11 11
3 3 3 1 3 4 4 4 4 5 7 8 6 7 7 5 4 4 5 4 2 3 5 2 2 3 2 1 2 2 5 5 2 2 4 4 3 2 2 2 3 8 9 7 5 5 3 2 6 7 6 6 6 3 2 2 4 6 7 9 10 8 8 10 10 9 7 9 11 14 13 9 6 7 8 6 5 6 8 9 9 5 4 6 9 10 10 10
5 3 4 2 3 4 3 4 4 4 6 7 5 7 7 6 5 4 7 8 7 5 6 5 3 3 5 7 7 8 7 7 5 4 4 4 3 2 1 1 2 4 8 7 4 4 4 3 5 6 6 6 7 8 6 2 2 6 9 8 6 7 8 8 8 9 8 5 7 9 9 6 6 8 10 10 8 8 10 11 10 9 9 10 10 9 10 10
5 0 3 4 3 4 3 4 5 5 5 4 2 4 5 7 8 4 4 7 10 9 9 8 6 2 4 8 9 9 6 5 5 3 3 4 3 2 2 1 2 4 3 4 3 4 4 4 5 6 6 5 6 7 6 4 2 6 7 4 2 5 4 5 7 9 10 7 3 6 7 6 7 9 10 11 10 9 10 10 9 11 14 15 14 12 11 11
Wind_Direction
355 354 351 346 342 336 328 318 309 306 303 299 297 297 296 298 299 300 300 300 302 303 305 302 302 302 299 300 295 297 303 296 288 265 242 246 246 232 240 242 216 195 175 185 191 186 192 202 204 201 209 209 215 229 210 208 227 224 226 239 236 235 239 238 209 204 263 97 108 116 164 268 167 155 229 194 204 172 159 142 100 88 93 101 106 121 135 142
355 355 352 349 346 340 333 324 315 309 304 301 296 295 295 296 298 299 299 300 300 302 304 304 305 305 303 300 295 303 307 293 278 266 251 245 245 230 229 223 199 184 177 192 195 189 193 197 198 196 207 212 205 218 212 199 216 226 225 233 234 240 238 252 278 220 346 57 85 122 163 282 152 150 187 196 190 171 171 153 122 114 117 121 120 128 137 143
355 353 352 350 348 344 338 332 323 314 307 302 296 294 293 292 295 297 299 300 300 303 303 305 307 304 305 303 304 316 308 291 276 261 245 234 234 227 214 200 189 179 179 195 197 194 200 199 196 197 209 217 204 207 208 191 203 224 230 236 231 242 254 54 326 318 6 360 209 127 154 239 158 163 180 167 175 190 180 148 140 142 134 132 131 138 142 146
354 352 351 350 348 347 342 338 330 320 312 304 297 292 291 291 294 296 298 299 300 302 302 305 306 304 306 307 316 325 301 283 271 163 141 194 216 209 202 191 184 181 188 206 204 200 208 204 198 202 215 220 209 208 210 195 198 219 226 240 236 243 270 209 208 241 231 311 281 357 238 216 148 189 200 162 162 205 205 167 161 161 151 140 137 145 146 148
353 351 351 349 349 348 345 343 335 326 316 308 300 292 290 291 293 296 295 296 299 301 302 301 303 305 305 311 324 312 290 275 104 98 114 179 197 192 195 187 181 184 199 220 211 206 214 212 203 205 221 226 214 208 214 209 203 226 226 238 252 266 290 239 185 205 193 249 253 243 238 231 133 203 226 184 173 186 199 177 149 145 150 141 142 147 148 153
351 351 350 349 350 347 347 344 339 332 320 312 304 295 292 291 292 293 292 294 297 299 301 301 303 306 308 313 311 286 272 280 88 102 113 113 177 184 186 180 178 186 206 223 210 209 215 216 209 206 220 229 224 215 215 213 204 231 232 230 250 263 269 251 165 162 210 236 227 229 248 333 248 216 227 226 185 156 166 150 124 129 140 139 144 149 155 163
350 350 349 349 349 347 347 344 341 336 325 317 308 299 294 290 289 289 291 292 293 298 299 303 306 307 317 313 291 255 252 268 105 114 113 124 164 174 178 176 177 191 213 217 205 208 210 213 212 210 219 226 229 220 217 220 210 227 241 229 236 239 240 249 233 198 212 235 232 247 274 243 240 221 196 218 145 119 127 128 128 118 130 150 149 154 162 168
349 349 348 348 347 347 346 344 342 336 329 320 310 304 296 289 287 288 290 291 291 296 296 303 309 312 328 318 289 249 244 251 108 116 156 154 161 168 169 174 183 198 215 213 207 207 207 212 213 213 221 225 233 225 219 225 216 223 242 243 234 226 236 241 243 235 220 231 231 242 253 231 234 241 213 207 142 149 154 146 138 122 150 170 157 159 164 171
348 347 347 347 347 347 345 344 341 336 333 324 315 307 299 293 289 287 287 288 289 292 297 304 307 317 322 301 285 272 241 90 104 142 203 164 163 166 167 176 187 200 212 212 213 210 210 214 212 219 230 233 236 230 222 225 219 219 233 243 239 225 233 233 233 235 226 228 224 227 235 229 229 254 248 221 155 148 175 174 141 133 165 170 157 161 163 172
346 346 346 346 346 346 344 343 339 336 334 327 319 309 302 296 288 287 284 286 287 288 296 300 305 319 302 279 272 276 109 90 110 139 164 165 162 167 176 180 185 201 213 211 213 215 220 221 215 224 241 251 248 236 225 222 224 230 234 238 237 233 230 228 229 228 225 224 221 224 227 227 214 200 239 214 153 154 184 179 144 139 168 181 168 161 163 174
346 345 345 346 346 345 343 341 339 335 333 329 322 311 305 296 289 287 283 282 283 286 291 298 316 305 287 281 271 275 93 101 132 136 162 168 167 176 186 186 189 207 216 212 216 221 230 235 235 231 233 250 249 239 231 223 233 252 251 243 235 235 236 232 231 226 226 222 216 225 231 227 202 201 236 201 151 178 188 175 164 159 173 187 175 156 163 176
345 344 344 344 343 343 341 339 337 334 332 330 324 313 305 298 291 286 283 282 282 284 284 289 336 302 286 279 258 256 91 156 170 144 168 173 179 186 192 195 199 213 219 218 217 223 232 236 247 237 224 251 239 234 234 222 233 246 246 251 235 230 237 231 227 223 223 219 208 216 231 227 202 212 233 186 154 189 186 190 185 170 171 175 168 157 166 176
344 343 341 341 342 342 340 337 336 334 331 329 325 315 304 298 291 286 283 279 279 276 275 282 303 284 279 274 258 241 231 210 183 169 174 181 190 192 203 211 209 218 230 235 226 221 225 230 242 239 242 257 232 212 261 218 226 243 229 242 242 229 229 220 220 218 217 218 203 202 222 225 209 216 222 177 170 200 189 199 195 176 174 165 163 163 168 176
343 341 339 338 339 339 338 336 334 332 328 326 323 314 302 295 290 285 279 274 277 266 265 288 282 267 259 265 268 224 217 215 193 197 185 186 193 194 206 213 214 221 232 244 249 224 212 220 237 245 251 253 249 110 222 221 214 234 228 230 241 239 228 207 207 211 210 204 188 201 230 230 212 208 208 179 173 197 197 200 195 184 175 161 165 168 171 179
341 339 338 336 336 338 336 334 332 331 327 323 321 316 302 292 286 279 276 272 276 276 270 274 249 250 260 260 250 203 212 217 207 206 191 189 195 197 199 203 209 212 216 229 244 220 203 210 222 242 233 230 261 241 213 222 210 222 228 225 221 236 245 204 190 199 205 185 180 209 233 239 240 213 190 175 177 193 203 200 193 188 173 161 169 173 177 178
339 337 337 334 334 335 333 332 331 328 324 320 321 319 304 293 286 274 275 255 252 266 248 249 232 229 272 280 179 179 212 210 207 201 191 194 202 202 189 192 200 199 206 213 216 205 200 209 216 245 241 210 231 238 217 216 210 211 219 231 217 217 242 209 174 187 205 194 188 210 227 237 256 214 164 164 188 198 205 202 195 191 172 167 173 178 185 177
338 336 335 333 332 332 332 331 329 327 323 323 326 323 307 295 285 267 285 242 239 246 231 258 261 228 262 287 209 212 204 188 191 190 187 197 208 202 176 185 195 191 197 198 197 194 194 210 217 239 255 221 213 225 228 218 210 210 210 230 229 217 231 212 170 182 207 210 198 200 226 244 234 124 149 174 195 203 209 204 197 193 174 174 178 180 190 181
337 335 334 332 331 330 330 329 327 325 322 327 334 330 317 303 285 257 267 230 222 228 231 253 268 248 247 239 237 208 174 168 175 183 184 192 206 201 184 190 190 184 190 188 191 196 190 202 217 218 224 218 215 216 224 221 211 211 207 218 234 221 222 221 186 179 201 206 206 199 214 240 220 158 173 192 195 203 213 206 198 195 180 180 185 186 192 186
336 334 333 331 330 329 329 328 326 323 322 333 340 330 323 304 260 240 232 216 200 224 251 203 198 256 309 223 227 141 138 152 166 183 182 185 198 198 192 194 187 184 191 182 185 199 192 199 218 221 215 209 216 218 224 240 238 228 217 210 227 221 211 231 207 163 189 197 208 217 212 225 230 202 177 185 198 207 217 206 194 197 187 187 193 188 190 190
335 333 332 330 330 330 328 326 325 321 324 335 332 307 283 264 257 221 208 214 218 244 278 251 212 251 282 238 218 181 152 162 187 191 182 183 189 190 191 190 188 190 199 188 178 194 201 212 217 219 224 210 211 226 236 288 309 290 250 212 222 228 203 223 211 150 185 213 206 220 227 221 230 225 189 183 200 207 218 205 186 199 198 193 196 190 190 193
334 332 331 329 329 328 325 325 322 317 322 327 310 274 271 307 321 344 299 248 239 242 259 260 244 253 262 263 227 187 180 192 204 194 176 182 188 187 183 186 191 192 205 198 172 182 210 224 221 219 231 220 208 225 244 305 299 279 270 234 222 233 211 207 192 141 176 227 215 217 231 225 230 233 196 176 198 205 216 205 187 203 205 196 196 192 191 193
333 332 330 327 325 325 323 322 316 312 317 309 266 253 273 321 341 339 322 290 275 261 252 247 245 250 253 253 229 211 226 202 198 191 173 181 194 189 177 185 199 192 199 203 175 181 214 231 231 218 220 228 208 232 252 262 256 251 256 253 230 227 221 197 161 141 180 211 231 223 226 229 231 228 183 175 203 208 214 209 197 205 205 196 195 190 193 196
332 331 328 326 323 323 323 317 312 308 301 263 240 248 269 314 333 318 302 285 287 276 256 238 234 236 232 229 205 200 228 210 197 185 171 186 202 197 188 188 204 201 195 205 198 199 210 218 227 213 168 193 223 232 244 241 240 242 242 243 236 218 219 202 166 198 202 202 242 236 223 231 226 200 169 183 206 210 212 211 201 206 207 198 192 192 198 197
331 330 327 325 321 322 326 317 306 293 268 240 244 256 274 298 309 316 306 275 279 274 256 235 229 233 224 215 193 193 215 219 212 181 169 192 205 200 208 198 206 212 197 201 211 230 235 196 204 197 153 198 223 216 226 234 225 229 236 240 241 223 223 225 185 200 200 207 241 251 234 221 200 188 190 188 204 209 205 205 202 205 208 192 186 194 204 207
329 328 326 326 321 324 328 315 296 264 241 240 253 260 267 276 296 315 308 276 270 249 224 208 210 225 206 187 181 193 211 218 225 189 168 196 207 194 211 208 214 218 201 200 211 237 242 134 139 199 185 206 221 214 214 224 228 221 226 239 252 247 230 214 177 193 209 210 212 224 237 213 185 199 201 184 196 206 200 202 201 202 202 190 188 194 203 209
328 326 325 324 323 326 326 311 299 297 275 255 254 267 255 262 305 308 288 273 268 201 167 180 187 175 173 181 178 191 210 210 221 194 167 195 213 204 214 204 212 228 212 202 211 239 229 140 165 214 214 212 218 222 212 212 236 232 206 220 246 263 243 210 195 204 225 234 194 208 233 221 186 200 199 185 193 202 198 198 200 200 198 198 196 194 208 192
326 323 324 322 323 330 325 312 328 304 281 261 245 318 282 288 311 297 266 265 255 185 147 164 170 155 172 185 176 190 215 184 195 193 170 193 208 209 228 208 197 230 235 213 214 225 218 191 190 203 210 214 217 227 209 202 230 249 189 202 224 245 241 223 226 222 227 259 208 212 231 231 196 195 190 182 192 202 192 188 200 201 201 206 201 200 210 149
323 322 322 318 318 318 290 290 304 279 269 355 3 299 307 311 293 256 255 269 234 158 153 136 111 157 185 179 180 200 231 146 176 183 171 192 201 198 227 225 212 216 215 226 216 186 202 215 201 195 209 213 216 224 204 202 225 246 216 211 214 224 226 223 234 235 231 243 231 215 221 228 216 198 185 177 194 204 189 186 194 195 204 203 207 217 185 112
321 320 318 316 318 310 266 264 273 265 275 319 320 302 311 301 273 239 248 263 216 159 163 132 131 180 186 175 191 207 201 164 185 170 165 189 205 208 229 235 232 217 200 221 233 176 183 213 203 196 208 214 220 221 194 198 217 217 221 223 214 221 225 224 234 236 226 236 244 219 209 221 215 184 179 181 204 206 185 182 180 189 208 190 203 232 109 101
319 317 317 318 315 313 264 245 251 267 280 295 302 301 292 269 240 232 228 240 244 177 139 155 171 180 178 177 195 208 209 202 183 160 167 182 198 214 241 249 247 235 202 214 237 243 144 207 210 205 216 228 233 225 187 204 211 186 216 221 211 218 223 225 235 237 227 230 243 227 210 221 215 173 190 205 203 199 185 171 162 177 193 176 206 228 97 116
319 318 318 309 291 289 283 247 243 273 274 294 302 283 262 238 222 236 219 236 275 194 160 182 174 161 178 188 190 198 208 200 164 167 176 178 188 204 224 226 235 238 211 210 231 236 217 205 208 218 232 258 267 210 210 224 222 211 223 219 205 209 213 217 220 225 233 232 235 225 205 217 229 180 197 190 146 152 192 173 168 178 175 173 197 175 125 153
321 320 314 293 268 253 251 253 350 342 290 315 307 254 230 217 219 236 221 227 256 182 180 195 180 172 186 198 192 188 201 192 171 183 186 182 189 196 210 213 198 207 215 209 212 215 215 207 199 209 221 233 241 214 192 215 225 219 226 223 212 208 209 221 218 212 229 232 232 225 203 211 222 121 101 80 90 101 140 155 171 176 159 165 170 135 133 161
324 319 306 287 260 238 239 256 292 296 286 300 286 231 222 226 221 224 224 229 190 121 194 201 191 196 190 199 198 185 200 195 174 188 193 191 198 195 208 216 202 207 222 210 203 201 207 208 203 207 200 203 232 231 183 192 210 214 220 221 216 209 209 226 222 213 225 220 201 214 213 215 212 121 126 133 113 117 117 127 152 153 143 156 123 114 140 163
326 312 292 264 239 234 237 255 267 270 269 260 245 215 220 231 227 221 227 236 226 156 219 215 205 211 201 213 209 185 203 203 179 192 197 193 205 199 204 214 210 214 228 218 213 203 206 207 201 207 193 184 214 239 229 196 198 214 224 228 228 219 218 232 238 234 236 219 183 187 213 224 218 153 137 144 145 142 136 134 144 150 150 152 142 144 159 159
330 305 252 212 227 233 230 239 243 239 234 225 221 216 218 223 225 227 231 242 240 207 203 215 221 224 213 219 218 196 206 210 187 196 202 196 207 205 200 209 211 216 222 216 218 215 221 219 195 203 205 189 203 229 244 229 207 208 220 228 228 225 229 228 233 291 327 282 210 185 215 228 153 135 133 144 147 142 138 138 145 151 144 142 146 150 151 144
328 272 207 208 221 218 220 231 219 210 217 217 216 218 220 222 225 232 232 240 252 241 220 216 218 231 223 214 224 206 203 212 200 199 207 204 207 207 205 204 202 211 224 220 214 216 227 231 187 192 203 206 209 215 223 234 229 195 219 234 229 233 252 247 198 145 151 255 240 196 218 195 143 156 169 167 148 129 127 123 123 126 124 129 134 132 129 128
306 249 217 210 217 249 232 222 199 203 218 221 222 225 227 228 231 243 256 268 277 267 245 235 216 227 231 215 222 209 197 206 207 203 207 205 206 205 207 206 195 205 221 227 231 232 238 257 193 183 198 209 220 232 229 232 238 213 218 235 235 237 261 268 244 189 198 234 230 207 218 207 192 185 169 172 166 139 127 109 101 100 100 102 104 107 111 112
288 256 232 218 345 315 239 198 191 204 216 219 228 236 238 235 234 241 249 276 279 257 243 249 229 219 230 225 223 209 198 202 203 212 217 204 202 211 211 207 193 201 212 212 218 214 226 258 216 193 210 205 202 238 242 228 235 246 253 239 232 235 232 232 243 233 223 233 231 214 212 222 236 192 166 182 178 146 130 115 107 104 101 101 103 107 108 108
268 248 220 36 355 309 194 180 193 210 215 219 226 230 238 246 246 245 244 252 266 256 243 248 240 229 236 238 237 209 202 214 203 213 234 209 192 264 247 218 186 193 207 210 217 203 202 256 228 199 223 210 186 216 232 216 220 236 259 251 227 240 249 229 226 237 233 229 233 227 216 221 284 171 176 178 150 134 130 126 121 113 112 114 111 112 112 112
259 248 118 48 14 59 157 178 200 214 213 221 230 228 233 242 245 246 244 247 260 259 254 253 245 241 245 242 242 218 212 237 220 206 273 242 198 225 253 246 203 190 199 214 228 219 196 225 233 221 240 227 199 209 222 222 216 214 227 237 224 220 235 237 233 245 253 240 226 231 221 159 45 358 177 125 115 127 135 137 138 131 126 119 112 115 115 108
270 266 70 64 61 110 159 194 208 217 218 223 235 239 240 247 250 247 237 233 248 256 266 273 260 248 252 246 242 229 226 245 233 206 249 273 282 213 227 274 234 189 186 212 224 227 211 214 228 234 236 229 225 223 225 231 238 225 215 223 231 225 216 229 234 228 243 252 245 242 225 110 41 340 122 123 130 146 150 151 146 138 132 120 111 113 111 106
277 294 55 59 125 200 228 236 222 223 227 226 231 236 245 270 265 259 246 225 234 244 249 261 260 254 260 263 258 251 241 234 225 215 217 253 312 316 290 298 253 190 186 205 189 124 280 238 244 233 225 241 257 277 267 254 258 259 241 227 231 231 228 236 240 231 233 239 245 252 242 106 35 349 80 132 152 144 140 140 129 127 129 122 116 115 114 115
298 31 70 71 222 235 256 255 233 231 238 241 247 250 251 238 234 250 252 230 226 233 228 233 247 248 249 256 266 265 256 247 247 236 188 178 207 214 213 262 265 207 189 186 137 95 126 226 256 245 244 278 277 264 265 259 253 254 252 242 235 236 244 244 242 287 261 241 241 248 239 120 76 18 85 143 148 130 129 129 119 119 121 123 124 122 121 124
354 19 85 67 135 234 261 284 261 254 252 248 257 263 254 245 243 249 248 236 227 228 229 235 243 245 247 255 267 266 261 259 258 250 202 165 148 164 188 211 248 229 202 175 144 149 187 202 255 256 254 274 257 237 228 232 239 242 240 243 246 244 248 253 243 214 248 252 258 257 235 116 97 115 131 139 134 125 125 122 119 122 125 129 131 128 128 131
316 269 73 46 35 250 287 327 309 301 290 271 262 261 253 243 252 263 261 257 253 249 245 251 257 258 260 258 255 257 261 263 259 259 253 198 142 147 178 194 227 235 178 79 117 167 209 196 214 254 257 251 247 254 277 267 255 245 237 241 252 246 246 257 257 235 241 245 249 260 239 115 118 126 125 129 137 133 118 111 121 135 134 132 132 131 131 134
324 337 350 20 34 341 360 4 329 305 299 289 266 259 256 244 240 250 254 255 263 263 256 260 271 265 258 259 254 251 251 244 240 249 264 245 163 133 166 185 208 195 100 101 149 177 201 197 201 224 234 237 238 275 307 319 307 254 232 232 247 246 244 254 255 249 253 242 242 246 176 144 137 132 136 143 151 144 128 122 130 132 127 124 128 130 128 130
341 8 357 349 360 351 358 19 356 332 322 302 277 290 272 251 232 226 243 236 225 258 258 254 263 255 249 255 253 251 251 242 237 240 250 251 152 114 149 143 122 109 111 144 177 174 184 192 178 174 178 177 177 234 308 330 326 291 237 222 238 232 228 240 248 264 273 255 275 304 141 142 140 137 134 129 131 130 126 132 135 129 127 129 129 127 125 126
360 34 30 340 330 2 9 7 360 2 5 339 284 329 299 254 220 192 254 244 213 245 262 252 265 262 250 250 248 246 251 244 240 244 253 254 197 143 176 150 130 143 165 175 170 181 225 195 165 166 160 142 123 92 40 347 336 343 17 25 357 129 168 195 203 331 294 211 127 64 92 112 122 124 108 88 93 107 107 117 119 114 126 135 136 136 135 131
19 52 51 308 343 31 42 13 6 35 22 2 9 20 2 16 90 83 319 275 220 289 299 253 264 277 254 249 249 240 250 253 239 240 319 283 255 214 194 156 142 160 186 194 171 192 247 179 165 190 189 163 159 83 74 46 340 349 5 2 9 48 82 80 57 46 67 99 108 106 97 86 86 91 81 68 76 93 93 95 103 116 148 147 137 134 132 129
16 15 356 359 48 41 63 39 23 65 44 18 20 10 2 34 61 64 52 42 59 3 346 300 274 332 358 280 265 68 47 24 33 62 13 325 286 254 213 197 179 178 188 194 168 175 230 188 167 195 211 196 195 193 135 63 346 329 327 337 350 10 44 58 43 35 69 98 108 105 95 84 85 93 96 93 82 86 80 67 71 99 144 139 125 120 118 118
4 8 323 323 38 6 22 57 47 61 51 39 24 353 355 16 13 41 65 49 43 36 12 354 325 353 53 57 48 50 40 23 26 26 2 340 318 308 275 255 272 215 190 181 168 179 199 186 168 190 223 219 202 207 204 158 358 307 292 298 337 7 22 42 39 26 37 74 119 113 94 94 119 119 110 100 85 84 79 62 60 70 69 69 84 102 111 114
346 34 284 299 33 20 17 72 71 57 51 52 24 349 1 7 355 3 65 38 25 26 20 5 341 333 65 48 32 24 9 359 4 349 330 331 327 339 2 349 305 280 216 174 194 215 202 188 181 197 230 227 194 197 192 168 226 273 267 249 96 79 57 38 38 30 19 14 64 109 97 100 120 121 110 97 83 73 65 55 54 59 54 48 47 52 63 71
Height
801 800 798 797 796 795 794 793 793 791 791 790 790 789 788 788 787 786 785 784 784 783 783 781 780 779 778 777 776 774 773 772 770 768 764 758 756 756 756 756 755 757 759 759 759 759 759 759 758 757 757 755 755 750 746 745 744 748 756 760 755 747 737 725 724 725 723 725 728 727 726 727 728 729 723 722 726 728 732 733 735 738 738 740 741 743 748 754
800 799 798 797 796 794 793 792 791 790 790 789 789 788 787 787 786 785 784 783 783 782 781 780 779 778 777 776 774 773 772 770 768 763 756 753 754 754 754 754 755 756 757 758 756 755 756 756 755 755 755 753 752 748 746 744 745 750 754 755 750 738 726 717 718 720 722 728 729 727 728 727 728 728 725 731 734 731 737 739 739 744 744 742 743 747 752 754
800 799 798 797 795 794 792 791 790 789 789 788 787 787 786 785 785 784 784 783 782 781 780 779 778 777 776 775 773 773 772 769 763 754 749 751 752 752 753 754 754 755 756 756 754 754 753 752 752 753 754 752 748 746 746 745 746 748 748 752 744 729 720 718 723 725 726 729 730 729 728 728 727 724 726 735 740 739 741 742 745 750 749 745 745 749 753 755
799 798 797 796 795 793 792 790 789 788 788 787 786 786 785 784 784 783 783 782 781 780 779 778 777 776 775 774 773 772 772 767 755 746 747 750 750 751 752 753 754 755 755 754 753 753 751 749 750 751 753 752 746 744 747 745 745 745 745 747 734 723 725 723 726 727 728 731 731 731 731 730 726 724 725 732 746 752 746 739 740 747 748 747 748 750 753 755
799 798 797 795 794 793 791 790 789 788 787 786 785 785 784 783 783 782 782 781 780 779 778 777 776 775 774 773 772 772 772 764 748 744 748 749 749 750 751 752 753 755 755 754 752 751 750 748 748 751 753 751 745 745 746 740 740 744 740 738 728 724 731 726 724 728 730 733 734 734 734 729 725 727 725 727 742 748 737 728 729 739 744 745 747 750 752 754
799 797 796 795 793 792 791 790 788 787 786 785 784 783 783 782 781 782 781 780 779 779 778 776 775 774 773 772 772 772 771 759 745 746 749 748 749 750 751 752 753 755 755 754 751 750 749 747 748 753 752 749 746 744 744 736 737 745 738 733 730 728 734 728 726 732 733 735 736 734 730 728 730 731 726 725 731 730 723 721 727 735 741 744 746 749 752 754
798 797 795 794 793 792 790 789 788 786 785 784 783 782 782 781 781 781 779 779 778 777 777 775 774 773 772 771 771 770 766 753 743 747 748 748 750 749 751 752 753 755 755 752 750 749 749 749 750 750 751 749 745 741 740 736 735 744 740 733 730 729 733 730 729 732 734 736 734 731 730 733 736 732 727 727 727 725 722 721 727 734 740 744 746 749 752 754
798 796 795 793 792 791 789 788 787 786 785 783 782 781 781 780 780 779 778 778 777 776 776 775 774 773 772 772 768 764 757 748 743 747 747 748 749 749 752 753 754 755 753 751 748 747 748 749 748 746 750 748 741 738 738 737 737 740 740 732 729 731 732 730 731 732 733 735 733 733 736 736 732 729 729 728 726 726 725 723 727 737 744 746 747 749 751 754
798 796 794 793 791 790 788 787 786 785 784 782 781 780 780 779 778 778 778 777 776 776 775 774 774 773 773 772 768 760 749 744 745 746 747 748 749 750 752 752 754 754 752 750 746 746 746 746 745 743 745 742 737 737 736 739 739 736 737 733 730 733 732 731 733 732 733 733 732 737 739 735 727 729 734 727 724 726 726 725 728 738 745 745 747 749 751 753
797 795 794 792 790 789 788 786 786 784 783 782 780 779 779 778 777 777 776 776 775 775 774 774 773 773 773 770 766 758 746 744 746 746 747 749 750 751 751 751 753 752 749 747 745 745 744 743 741 738 740 740 736 735 734 737 735 730 733 732 730 732 730 731 732 730 732 731 732 737 739 733 725 734 740 725 721 726 727 728 731 739 746 746 748 748 750 753
797 795 793 791 790 788 787 786 785 783 782 780 779 778 778 777 776 776 775 775 774 774 774 773 773 773 772 769 764 754 744 745 747 746 748 749 750 751 750 750 750 750 747 745 745 744 743 740 737 737 742 741 737 737 734 732 732 730 732 734 730 731 731 730 731 730 730 731 730 733 737 731 727 736 736 720 720 726 728 732 734 740 747 748 747 747 750 752
796 794 793 791 789 788 786 785 784 783 781 780 779 777 777 776 775 775 774 774 773 773 773 773 773 773 771 767 759 749 744 746 747 747 748 748 750 749 748 749 749 748 746 744 744 744 743 740 739 742 742 740 740 741 735 728 731 731 734 740 735 733 734 731 730 729 730 732 727 731 741 736 731 736 727 718 722 725 729 734 734 738 742 744 745 746 750 751
795 794 792 790 789 787 786 784 783 782 780 779 778 776 776 775 774 774 773 773 773 773 772 772 772 772 773 763 748 744 745 746 746 747 747 748 748 748 748 749 748 747 746 744 743 743 744 742 743 742 738 740 740 736 732 727 733 735 736 742 739 736 736 728 726 727 729 729 721 731 750 743 731 730 722 718 725 727 732 735 734 736 737 740 744 746 749 751
795 793 791 790 788 786 785 783 782 781 780 779 777 776 775 773 773 772 772 772 772 772 771 771 772 772 771 758 743 743 745 745 746 746 746 747 746 747 748 748 747 747 746 745 743 743 744 743 744 741 738 740 734 731 735 734 736 739 739 740 739 740 732 718 720 725 728 726 719 732 750 739 724 721 717 717 724 729 734 735 734 736 737 740 744 746 749 750
794 792 791 789 787 786 784 783 781 780 779 777 776 775 773 773 772 771 772 771 771 771 770 771 771 770 766 752 740 741 743 744 744 743 744 745 744 745 746 747 747 747 747 747 745 744 744 744 745 745 741 737 735 738 742 740 737 738 744 744 738 738 728 711 712 720 726 725 721 734 746 735 718 708 708 714 721 727 732 733 734 735 737 742 745 746 748 749
793 792 790 788 787 785 783 782 780 779 778 776 775 773 772 771 770 770 770 770 771 770 771 771 768 768 762 747 738 740 741 740 740 741 742 743 742 741 743 746 746 746 747 746 746 745 744 744 744 742 738 737 742 743 741 742 740 735 741 742 733 734 728 711 711 715 719 723 724 732 739 731 715 701 702 713 719 724 728 731 733 734 737 742 745 746 746 748
792 791 789 788 786 784 783 781 780 778 777 775 774 772 771 770 769 770 769 770 770 770 771 768 764 766 758 742 739 738 735 735 736 738 740 741 741 740 741 744 744 745 745 745 746 744 744 745 744 742 739 739 740 740 745 749 744 735 734 735 727 725 724 715 715 716 714 720 724 729 733 726 715 709 712 717 719 723 727 730 732 733 737 741 744 745 745 746
791 790 788 787 785 783 782 780 779 777 776 774 773 772 771 769 769 769 769 769 770 771 770 767 766 765 752 739 737 733 730 733 735 736 738 740 740 740 741 742 742 743 745 746 745 744 744 744 742 744 743 741 738 738 748 745 735 732 732 734 728 719 720 716 713 714 713 719 724 728 732 726 717 716 720 719 718 723 725 727 731 732 736 742 743 743 743 744
791 789 787 786 784 783 781 779 778 776 775 774 773 772 770 770 769 769 769 768 767 765 760 758 759 755 744 736 732 730 730 733 735 736 737 738 740 740 740 740 740 743 746 747 746 743 743 744 744 746 744 740 737 733 735 728 719 721 721 726 727 719 720 714 705 707 712 721 726 725 728 726 719 715 718 720 719 723 725 725 730 733 735 740 742 742 742 743
790 788 787 785 783 782 780 779 777 775 774 773 773 773 770 765 762 761 763 763 758 750 744 743 743 739 735 732 728 729 733 734 735 734 735 737 738 738 738 739 740 743 744 744 745 740 739 748 747 744 738 733 733 728 726 724 720 720 718 719 721 717 718 712 705 708 712 722 726 722 723 721 718 714 713 719 721 724 726 726 731 734 735 738 740 740 740 742
789 788 786 784 783 781 779 778 776 775 774 773 774 772 764 757 755 756 756 753 744 739 737 734 733 732 729 727 725 727 730 733 732 730 733 736 735 738 738 738 743 745 741 737 740 738 740 749 743 734 730 725 727 726 726 731 730 729 724 720 720 717 714 707 706 712 715 725 726 720 721 720 718 713 709 717 724 726 725 726 731 734 734 735 736 738 739 740
788 787 785 783 781 779 778 777 775 774 773 773 774 770 760 755 757 757 755 750 738 732 732 729 729 729 725 725 726 727 729 732 732 729 730 734 734 737 736 737 742 742 736 733 738 744 748 747 735 725 724 725 728 729 731 736 736 734 729 726 724 717 712 706 708 715 718 728 728 719 722 722 714 709 710 719 724 724 722 723 728 731 732 733 735 737 738 739
788 785 784 782 780 779 777 775 774 772 772 772 770 765 759 757 757 757 756 753 740 728 724 724 725 726 725 726 725 728 731 729 730 728 727 732 732 732 733 736 739 735 734 735 737 746 749 739 726 720 724 731 735 735 737 739 738 736 732 730 726 716 715 717 719 720 718 724 725 718 721 721 713 712 716 720 721 722 722 720 723 726 728 730 732 735 736 739
786 784 783 780 779 777 775 773 772 770 769 769 766 762 759 759 758 758 756 751 740 726 719 717 718 720 721 721 722 728 731 726 725 724 725 730 730 729 730 731 734 733 731 732 735 739 734 722 717 720 727 735 739 739 741 742 740 736 731 729 723 714 713 717 721 721 720 724 722 720 728 725 718 723 725 722 722 723 722 721 724 725 725 727 731 734 736 737
785 784 782 779 778 775 774 773 768 767 767 765 763 760 759 760 759 759 758 753 740 722 715 715 716 718 715 718 722 723 726 725 720 718 720 725 726 727 729 726 729 732 729 729 735 735 725 717 718 726 732 734 738 739 739 741 739 734 730 725 719 715 712 714 720 725 731 734 722 724 742 735 721 725 727 725 728 728 725 725 727 727 726 728 732 735 736 736
784 783 780 779 777 773 773 769 766 767 765 761 760 758 759 760 759 760 758 756 741 719 716 719 718 717 716 719 721 721 729 728 715 712 717 722 721 722 728 726 725 728 723 723 730 729 722 719 723 729 733 734 737 737 733 734 739 734 724 719 719 717 714 716 721 728 736 736 720 718 739 740 727 725 722 723 729 730 728 728 728 728 729 730 732 736 736 739
783 781 779 778 775 774 772 767 767 767 761 758 758 759 760 759 760 760 759 762 744 717 715 718 715 717 717 716 716 723 731 722 713 712 714 720 719 718 727 726 725 726 719 722 734 728 720 724 727 729 733 735 736 735 727 728 737 730 714 713 719 719 720 721 722 726 726 726 723 717 723 734 734 725 715 718 729 729 728 732 731 730 732 732 733 735 736 743
781 779 778 776 774 775 773 770 769 764 759 758 758 761 760 759 761 758 765 772 741 708 710 714 713 715 713 713 714 718 716 709 717 718 711 717 719 719 729 725 723 725 719 727 738 726 718 726 730 730 734 734 730 726 720 723 731 724 712 713 715 717 720 720 721 723 721 729 737 723 716 734 741 725 711 716 726 727 727 731 732 732 733 734 736 735 739 752
779 778 776 774 772 772 771 771 768 763 760 760 760 761 759 760 760 755 768 770 729 702 707 711 715 716 713 715 715 713 709 708 716 713 709 718 717 717 726 721 719 723 721 726 730 721 717 720 721 726 732 728 721 714 712 720 725 717 713 713 713 715 716 717 721 721 725 739 743 725 718 736 744 729 718 723 727 723 723 727 731 735 735 734 738 737 745 762
777 776 774 773 771 769 769 768 765 762 761 761 761 761 759 760 759 762 774 759 720 705 707 709 714 713 713 719 718 714 712 711 711 709 712 718 717 717 718 715 717 719 720 723 723 718 715 715 716 720 721 716 713 710 710 715 716 714 717 716 717 718 715 720 720 719 737 751 739 722 717 727 738 733 723 722 722 718 720 726 732 738 738 738 742 744 754 767
774 773 772 771 770 769 768 764 761 761 761 761 761 759 760 758 757 766 765 736 714 710 707 709 711 707 712 718 717 716 713 711 711 714 718 718 720 723 722 722 724 724 726 727 724 720 718 722 722 717 713 711 715 717 715 713 711 715 720 718 725 728 724 728 726 728 753 758 733 715 713 723 740 742 725 713 714 717 720 724 729 733 735 737 742 746 754 762
770 769 768 767 766 767 765 760 759 762 761 761 761 757 758 760 761 761 745 723 718 713 705 708 708 705 710 711 711 713 712 710 711 714 718 719 722 724 725 726 726 733 738 733 728 725 723 721 719 716 712 712 720 721 719 718 715 719 721 721 734 743 744 748 744 742 752 747 725 711 714 726 736 737 728 720 721 725 724 723 726 728 732 735 738 742 748 754
767 765 764 763 762 762 761 759 760 762 761 761 760 754 755 764 761 748 733 722 718 709 703 706 704 702 707 709 708 708 709 709 709 712 713 715 720 721 721 717 716 728 734 728 728 731 730 722 715 717 715 712 718 720 722 725 721 722 722 724 737 749 761 766 754 747 747 737 721 713 720 732 733 731 730 729 730 730 727 727 729 730 733 736 738 744 750 751
763 761 760 760 760 760 759 760 760 760 761 761 758 755 759 765 752 734 728 719 707 704 706 706 705 705 706 707 704 702 708 709 705 709 711 712 720 721 719 716 711 716 721 724 725 726 735 733 718 716 715 712 715 713 712 714 717 719 713 715 727 736 752 761 750 746 745 735 724 724 732 737 736 732 725 724 729 730 731 734 735 737 738 741 745 751 755 753
760 759 758 758 759 759 758 760 759 759 760 758 755 755 760 759 744 730 725 713 701 703 706 704 706 711 710 706 700 695 703 706 702 705 708 710 717 717 715 714 710 710 716 727 725 717 727 727 708 705 705 705 713 709 701 707 716 714 705 712 723 720 726 740 743 742 745 744 735 732 734 728 729 731 722 722 726 726 730 734 735 739 741 746 750 752 753 751
759 758 758 757 757 757 757 758 758 759 758 754 754 754 749 742 732 723 713 705 702 701 702 706 708 714 715 710 704 698 697 701 702 704 706 705 708 708 708 707 706 708 711 720 723 719 726 720 700 700 703 701 706 704 700 708 715 714 714 716 711 704 709 728 740 737 745 757 744 731 733 726 729 738 728 724 728 727 730 733 734 736 738 742 745 745 747 748
758 757 756 754 754 756 756 757 757 758 756 752 753 749 738 728 721 713 704 704 707 702 706 713 709 711 717 714 711 704 699 703 704 705 707 706 704 702 702 702 701 705 706 710 718 718 724 724 704 701 710 704 699 701 700 699 704 718 727 715 701 704 710 721 739 742 748 759 744 730 737 732 732 739 731 727 734 735 735 737 739 739 741 745 744 744 747 747
757 755 753 752 754 754 754 755 756 755 752 751 751 744 733 723 715 708 704 708 712 709 713 717 708 706 712 714 711 701 700 707 709 709 709 707 707 702 699 699 698 700 700 705 717 716 720 733 718 703 709 705 697 707 712 701 697 708 714 704 706 725 728 725 740 750 752 757 746 733 734 730 727 729 727 729 733 736 740 743 745 746 746 747 746 746 748 748
756 753 751 752 753 752 752 754 753 751 750 750 749 742 731 722 713 706 706 711 714 713 715 714 706 704 707 710 708 705 709 711 709 715 714 709 715 710 699 696 696 699 698 701 713 713 718 737 731 708 703 703 703 714 721 714 705 704 706 704 707 720 725 725 732 737 741 751 751 742 736 733 730 722 719 725 729 734 743 747 748 751 751 749 747 748 749 749
752 750 750 752 753 751 751 752 751 748 747 744 740 733 726 720 714 709 709 714 716 715 715 711 706 709 711 707 703 706 713 710 705 716 721 715 719 716 703 699 698 699 701 701 707 710 718 736 738 720 707 708 712 714 714 714 709 709 716 717 713 712 716 722 725 723 729 741 747 746 742 740 736 724 719 727 734 738 746 750 751 753 753 751 749 750 750 751
748 748 751 751 752 752 751 751 748 743 741 738 733 728 721 716 715 714 712 715 717 714 712 711 709 712 713 708 704 703 707 711 712 720 724 721 723 719 707 703 701 701 706 710 711 713 720 729 734 732 726 722 716 704 700 703 703 706 713 715 715 713 717 732 737 726 724 733 737 740 747 750 740 725 723 732 738 741 744 747 747 750 753 752 751 752 753 755
746 747 750 750 751 751 750 749 743 737 735 732 726 723 720 718 720 721 716 715 718 715 712 714 714 715 714 711 709 704 703 710 714 718 721 723 727 725 714 706 702 701 707 715 715 715 719 724 730 732 728 722 712 701 700 701 699 701 703 704 707 709 715 733 740 732 725 725 726 731 744 753 742 726 725 730 731 733 737 739 741 748 753 753 752 754 755 758
743 745 748 749 750 749 749 748 741 736 734 726 720 720 720 721 726 725 719 717 719 717 715 716 717 718 716 712 711 707 706 710 709 708 718 728 729 725 719 713 707 703 706 715 720 721 724 729 735 733 724 719 713 705 703 703 704 708 706 702 705 709 715 721 724 730 732 728 727 733 744 753 744 731 729 729 727 729 734 737 741 747 751 752 754 756 757 760
743 745 745 746 748 747 748 748 742 739 735 728 726 728 725 723 725 724 721 719 717 716 718 718 716 717 714 710 712 711 710 715 713 704 709 723 727 720 715 715 712 707 708 714 719 724 729 734 740 744 743 743 737 724 717 713 711 713 709 705 706 707 713 716 716 728 737 731 729 737 748 754 746 736 733 731 732 735 736 739 745 750 753 755 756 758 759 762
746 746 743 744 746 745 746 746 743 742 740 736 737 737 732 728 725 724 724 722 718 717 721 721 716 716 715 712 715 714 709 714 718 710 705 710 716 715 712 713 713 709 709 712 714 720 730 736 741 751 759 764 762 755 746 735 722 715 711 710 711 710 713 718 722 732 739 734 731 738 751 756 747 743 742 740 743 746 744 745 749 751 755 756 757 759 761 764
746 748 747 746 745 745 745 745 744 745 743 743 743 739 737 736 731 726 726 727 725 722 724 724 719 720 721 718 719 719 712 710 713 713 711 710 711 712 711 710 711 711 713 716 715 719 729 735 738 746 753 759 764 763 754 743 734 726 718 715 716 716 716 720 728 733 734 733 734 735 743 753 753 753 754 752 753 752 752 755 754 752 755 758 758 760 762 766
748 752 754 753 752 750 747 746 748 747 744 747 747 742 741 740 735 732 730 729 729 727 726 725 723 724 726 723 724 724 716 710 711 712 713 711 710 712 712 711 714 717 719 719 717 720 732 739 740 744 747 749 753 754 752 749 741 729 720 721 723 722 723 729 736 735 730 736 746 745 742 749 755 756 757 758 757 753 753 758 758 756 758 761 762 764 766 768
751 755 757 758 759 756 754 755 754 751 750 751 747 744 743 740 738 740 736 730 729 729 730 731 728 725 723 722 725 726 721 718 717 716 716 714 714 717 716 712 716 721 720 718 718 721 730 738 742 745 749 749 748 748 751 754 748 735 731 734 732 728 731 736 737 734 730 738 753 760 757 754 753 754 758 761 761 758 758 759 760 761 763 763 764 767 769 770
753 757 756 757 759 759 760 762 758 756 760 758 752 749 748 743 742 743 738 736 736 733 733 737 734 725 721 720 721 726 730 730 728 726 728 726 722 722 723 720 719 721 720 719 720 720 727 737 741 742 747 751 751 750 751 755 755 751 748 746 741 737 736 739 739 736 736 743 750 758 764 763 758 758 762 765 764 763 763 765 768 771 771 767 764 764 767 769
759 762 760 756 757 757 759 763 761 759 765 767 765 763 757 749 748 744 739 742 747 743 738 739 736 727 723 723 725 731 737 737 735 734 735 734 729 728 730 729 723 720 720 723 724 723 731 743 742 740 747 753 753 753 755 759 761 761 759 756 753 750 746 747 749 747 748 756 758 760 769 772 766 764 767 770 769 768 770 774 775 776 774 770 767 768 770 772
765 766 764 760 759 758 760 766 765 763 768 775 779 777 767 758 752 748 745 744 747 747 744 742 739 733 731 733 736 741 742 739 738 737 734 734 732 728 728 725 720 719 719 722 727 728 734 743 743 744 751 752 751 754 757 761 766 769 767 764 764 765 763 760 760 759 760 762 761 763 772 774 768 766 771 774 775 776 779 780 779 777 776 774 774 774 775 776
767 766 765 761 759 760 761 765 766 768 776 784 786 781 773 765 756 751 753 752 747 746 745 743 741 738 740 745 746 746 744 741 741 738 734 732 728 724 724 723 721 722 721 724 732 734 735 741 742 746 752 750 748 752 757 765 773 773 767 765 767 772 774 771 770 770 769 765 763 766 772 770 766 767 773 779 784 786 788 788 787 786 786 788 789 787 786 786